Elkins, WV

2:45 AM EDT on August 27, 2016 (GMT -0400)
Elkins-Randolph County

Weather History for KEKN - July, 2012

Change the Weather History Date:

Wednesday, July 18, 2012

  Actual Average Record
Temperature  
Mean Temperature 79 °F 70 °F  
Max Temperature 90 °F 81 °F 91 °F (1942)
Min Temperature 67 °F 59 °F 46 °F (1924)
Degree Days  
Heating Degree Days 0 0  
Month to date heating degree days 0 8  
Since 1 June heating degree days 70 63  
Since 1 July heating degree days 0 8  
Cooling Degree Days 14 5  
Month to date cooling degree days 187 92  
Year to date cooling degree days 350 207  
Since 1 June cooling degree days 287 184  
Growing Degree Days 28 (Base 50)    
Moisture  
Dew Point 68 °F    
Average Humidity 78    
Maximum Humidity 100    
Minimum Humidity 55    
Precipitation  
Precipitation 0.99 in 0.17 in 2.22 in (1912)
Month to date precipitation 5.60 3.21  
Year to date precipitation 25.64 26.82  
Snow  
Snow 0.00 in - - ()
Month to date snowfall 0.0  
Since 1 September snowfall 30.6  
Snow Depth 0.00 in    
Sea Level Pressure  
Sea Level Pressure 30.02 in    
Wind  
Wind Speed 3 mph (NW)    
Max Wind Speed 24 mph    
Max Gust Speed 35 mph    
Visibility 5 miles    
Events Rain    
T = Trace of Precipitation, MM = Missing Value Source: NWS Daily Summary

Daily Weather History Graph

Daily Weather History Graph

Search for Another Location

Airport or City:

Trip Planner

Search our weather history database for the weather conditions in past years. The results will help you decide how hot, cold, wet, or windy it might be!

Date:

Astronomy

Jul. 18, 2012 Rise Set
Actual Time 6:09 AM EDT 8:41 PM EDT
Civil Twilight 5:38 AM EDT 9:12 PM EDT
Nautical Twilight 4:59 AM EDT 9:50 PM EDT
Astronomical Twilight 4:16 AM EDT 10:33 PM EDT
Moon 5:41 AM EDT (7/18) 8:11 PM EDT (7/18)
Length of Visible Light 15h 34m
Length of Day
14h 32m
Waning Crescent, 0% of the Moon is Illuminated
Jul 18
Waning Crescent
Jul 19
New
Jul 26
First Quarter
Aug 1
Full
Aug 9
Last Quarter

Hourly Weather History & Observations

Time (EDT) Temp. Heat Index Dew Point Humidity Pressure Visibility Wind Dir Wind Speed Gust Speed Precip Events Conditions
12:51 AM 70.0 °F - 66.9 °F 90% 29.99 in 6.0 mi Calm Calm - N/A   Clear
1:51 AM 69.1 °F - 66.9 °F 93% 29.97 in 4.0 mi Calm Calm - N/A   Clear
2:51 AM 68.0 °F - 66.0 °F 93% 29.97 in 3.0 mi Calm Calm - N/A   Clear
3:51 AM 68.0 °F - 66.0 °F 93% 29.96 in 2.5 mi Calm Calm - N/A   Scattered Clouds
4:12 AM 68.0 °F - 66.2 °F 94% 30.00 in 4.0 mi Calm Calm - N/A   Partly Cloudy
4:43 AM 66.2 °F - 66.2 °F 100% 30.00 in 2.5 mi Calm Calm - N/A   Clear
4:51 AM 66.9 °F - 66.0 °F 97% 29.96 in 2.5 mi Calm Calm - N/A   Scattered Clouds
5:01 AM 66.2 °F - 66.2 °F 100% 30.01 in 3.0 mi Calm Calm - N/A   Scattered Clouds
5:08 AM 68.0 °F - 66.2 °F 94% 30.01 in 2.5 mi Calm Calm - N/A   Mostly Cloudy
5:34 AM 68.0 °F - 66.2 °F 94% 30.02 in 3.0 mi Calm Calm - N/A   Mostly Cloudy
5:51 AM 68.0 °F - 66.0 °F 93% 29.98 in 3.0 mi Calm Calm - N/A   Scattered Clouds
6:00 AM 66.2 °F - 66.2 °F 100% 30.03 in 1.8 mi Calm Calm - N/A   Partly Cloudy
6:23 AM 68.0 °F - 66.2 °F 94% 30.04 in 2.0 mi Calm Calm - N/A   Mostly Cloudy
6:49 AM 69.8 °F - 66.2 °F 88% 30.05 in 3.0 mi Calm Calm - N/A   Overcast
6:51 AM 69.1 °F - 66.9 °F 93% 30.01 in 3.0 mi Calm Calm - N/A   Overcast
7:51 AM 71.1 °F - 66.9 °F 87% 30.01 in 4.0 mi Calm Calm - N/A   Partly Cloudy
8:51 AM 73.0 °F - 68.0 °F 84% 30.03 in 7.0 mi NW 3.5 mph - N/A   Overcast
9:11 AM 71.6 °F - 69.8 °F 94% 30.07 in 1.8 mi ESE 3.5 mph - 0.02 in Rain Heavy Rain
9:24 AM 73.4 °F - 69.8 °F 88% 30.08 in 3.0 mi Calm Calm - 0.13 in Rain Light Rain
9:49 AM 73.4 °F - 71.6 °F 94% 30.07 in 1.8 mi Calm Calm - 0.16 in Rain Heavy Rain
9:50 AM 73.0 °F - 71.1 °F 93% 30.04 in 1.8 mi Calm Calm - 0.17 in Rain Heavy Rain
10:03 AM 73.4 °F - 69.8 °F 88% 30.07 in 3.0 mi North 3.5 mph - 0.06 in Rain Light Rain
10:51 AM 73.9 °F - 72.0 °F 93% 30.05 in 4.0 mi SSW 3.5 mph - 0.07 in   Overcast
11:10 AM 73.4 °F - 71.6 °F 94% 30.08 in 3.0 mi Calm Calm - 0.00 in Rain Light Rain
11:51 AM 75.9 °F - 72.0 °F 87% 30.04 in 6.0 mi Calm Calm - 0.00 in   Clear
12:51 PM 79.0 °F - 71.1 °F 77% 30.02 in 8.0 mi Calm Calm - N/A   Clear
1:51 PM 82.0 °F 86.7 °F 72.0 °F 71% 29.99 in 8.0 mi Calm Calm - N/A   Clear
2:51 PM 87.1 °F 93.6 °F 72.0 °F 61% 29.95 in 10.0 mi NNW 5.8 mph - N/A   Partly Cloudy
3:51 PM 87.1 °F 91.3 °F 69.1 °F 55% 29.94 in 10.0 mi WNW 6.9 mph - N/A   Clear
4:51 PM 87.1 °F 92.0 °F 70.0 °F 57% 29.94 in 10.0 mi NNW 6.9 mph - N/A   Clear
5:51 PM 84.0 °F 89.0 °F 71.1 °F 65% 29.94 in 10.0 mi NNW 4.6 mph - N/A   Clear
6:51 PM 73.9 °F - 63.0 °F 68% 30.04 in 10.0 mi NNW 18.4 mph 34.5 mph 0.00 in Rain Light Rain
7:02 PM 69.8 °F - 64.4 °F 83% 30.12 in 5.0 mi WNW 12.7 mph 26.5 mph 0.01 in Rain Heavy Rain
7:08 PM 69.8 °F - 66.2 °F 88% 30.12 in 1.8 mi NW 9.2 mph 23.0 mph 0.03 in Rain Heavy Rain
7:23 PM 66.2 °F - 66.2 °F 100% 30.10 in 2.0 mi Variable 3.5 mph - 0.51 in Rain Heavy Rain
7:32 PM 68.0 °F - 66.2 °F 94% 30.09 in 4.0 mi Calm Calm - 0.54 in Rain Rain
7:51 PM 69.1 °F - 66.0 °F 90% 30.06 in 6.0 mi Calm Calm - 0.57 in Rain Light Rain
8:51 PM 68.0 °F - 66.9 °F 96% 30.04 in 5.0 mi West 4.6 mph - 0.15 in Rain Rain
9:51 PM 68.0 °F - 66.0 °F 93% 30.04 in 10.0 mi South 9.2 mph - 0.03 in   Partly Cloudy
10:51 PM 68.0 °F - 64.9 °F 90% 30.01 in 10.0 mi SSE 4.6 mph - N/A   Clear
11:51 PM 66.9 °F - 64.9 °F 93% 30.02 in 9.0 mi Calm Calm - N/A   Clear